Location: *
(0.1100°N, 5.5000°E)
Time: 13:16:08
(UTC+00:00)

CCE 1 Rocket - Pass Details

Date: 07 December 2022
Orbit: 544 x 3980 km, 28.9° (Epoch: 02 February)

Event Time Altitude Azimuth Distance (km) Brightness Sun altitude
Rises 18:09:26 0° 297° (WNW) 4,217 8.5 -9.2°
Reaches altitude 10° 18:13:00 10° 294° (WNW) 2,793 7.5 -10.1°
Maximum altitude 18:19:02 65° 213° (SSW) 759 4.2 -11.4°
Drops below altitude 10° 18:23:01 10° 130° (SE) 1,869 5.8 -12.4°
Enters shadow 18:24:52 - 127° (SE) 2,648 6.5 -12.8°
